#timestamp,LO_Frequency,Hit,StdDev 
1509843615.7,286047012.0,N
1509843635.6,286047009.7,N
1509843655.4,286047012.2,N
1509843675.2,286047009.6,N
1509843695.1,286047010.4,N
1509843696.0,286047010.4,N
1509843715.8,286047013.5,N
1509843735.6,286047014.4,Y
1509843755.5,286047010.0,P
1509843775.3,286047011.3,P
1509843795.1,286047013.7,P
1509843815.9,286047012.7,Y
1509843835.7,286047006.0,P
1509843855.5,286047001.7,N
1509843875.4,286046999.7,N
1509843895.2,286047000.2,N
1509843915.0,286046999.0,N
1509843915.9,286046999.0,N
1509843935.8,286046996.6,N
1509843955.6,286047002.3,N
1509843975.4,286047003.6,N
1509843995.3,286047004.9,N
1509844015.1,286047007.2,N
1509844035.8,286047001.5,N
1509844055.7,286046999.9,N
1509844075.5,286047000.2,N
1509844095.3,286047002.5,N
1509844115.2,286046997.0,N
1509844135.0,286046999.4,N
1509844135.9,286046999.4,N
1509844155.8,286046997.9,N
1509844175.6,286046999.3,N
1509844195.4,286046995.8,N
1509844215.3,286046996.9,N
1509844235.1,286046999.5,N
1509844236.0,286046999.5,N
1509844255.8,286046999.9,N
1509844275.7,286046997.6,N
1509844295.5,286046997.9,N
1509844315.3,286046998.2,N
1509844335.2,286047000.7,N
1509844355.9,286047001.0,N
1509844375.7,286046999.7,N
1509844395.6,286046998.9,N
1509844415.4,286046999.5,N
1509844435.2,286047001.1,N
1509844455.1,286047003.2,N
1509844456.0,286047003.2,N
1509844475.8,286047003.7,N
1509844495.6,286047005.4,N
1509844515.5,286047003.3,N
1509844535.3,286047004.2,N
1509844555.1,286047003.7,N
1509844575.9,286047002.7,N
1509844595.7,286046999.3,N
1509844615.5,286046997.6,N
1509844635.4,286046997.7,N
1509844655.2,286046995.0,N
1509844675.0,286046996.0,N
1509844675.9,286046996.0,N
1509844695.8,286046997.9,N
1509844715.6,286046999.5,N
1509844735.4,286046998.9,N
1509844755.3,286046998.8,N
1509844775.1,286047002.7,N
1509844795.8,286047004.2,N
1509844815.7,286047000.8,N
1509844835.5,286046995.7,N
1509844855.3,286047002.8,N
1509844875.2,286046998.4,N
1509844895.9,286046995.6,N
1509844915.7,286046994.9,N
1509844935.6,286046997.5,N
1509844955.4,286046996.9,N
1509844975.2,286047000.8,N
1509844995.1,286047002.6,N
1509844996.0,286047002.6,N
1509845015.8,286047003.4,N
1509845035.6,286047005.3,N
1509845055.5,286047004.5,N
1509845075.3,286047008.1,N
1509845095.1,286047008.9,N
1509845115.9,286047008.3,N
1509845135.7,286047009.9,N
1509845155.5,286047011.1,N
1509845175.4,286047015.6,Y
1509845195.2,286047014.7,P
1509845215.0,286047012.8,N
1509845215.9,286047012.8,N
1509845235.8,286047013.8,N
1509845255.6,286047012.4,N
1509845275.4,286047009.7,N
1509845295.3,286047008.9,N
1509845315.1,286047009.8,N
1509845335.9,286047012.2,Y
1509845355.7,286047002.2,P
1509845375.5,286047002.0,N
1509845395.4,286047003.7,N
1509845415.2,286047007.5,N
1509845435.0,286047006.3,N
1509845435.9,286047006.3,N
1509845455.8,286047004.6,N
1509845475.6,286047006.5,N
1509845495.4,286047006.8,N
1509845515.2,286047007.3,N
1509845535.1,286047008.1,Y
1509845536.0,286047008.1,P
1509845555.8,286046999.8,N
1509845575.7,286046998.7,N
1509845595.5,286046993.4,N
1509845615.3,286046999.5,N
1509845635.2,286046999.1,N
1509845655.9,286046999.3,N
1509845675.7,286046997.0,N
1509845695.6,286046997.9,N
1509845715.4,286046996.3,N
1509845735.2,286046996.0,N
1509845755.1,286046996.4,N
1509845756.0,286046996.4,N
1509845775.8,286046996.0,N
1509845795.6,286046996.4,N
1509845815.5,286046991.8,N
1509845835.3,286046990.8,N
1509845855.1,286046994.6,N
1509845875.9,286046996.7,N
1509845895.7,286046998.8,N
1509845915.5,286046996.0,N
1509845935.4,286046983.8,Y
1509845955.2,286046983.8,P
1509845975.0,286046984.4,N
1509845976.0,286046984.4,N
1509845995.8,286046985.2,N
1509846015.6,286046985.0,N
1509846035.5,286046980.5,Y
1509846055.3,286046995.1,P
1509846075.1,286046993.9,N
1509846095.9,286046995.2,N
1509846115.7,286047000.1,N
1509846135.5,286047004.3,N
1509846155.4,286047001.5,N
1509846175.2,286047003.2,N
1509846195.0,286047003.7,N
1509846195.9,286047003.7,N
1509846215.8,286047001.4,N
1509846235.6,286047001.0,N
1509846255.4,286047001.2,N
1509846275.3,286047000.4,N
1509846295.1,286047000.2,N
1509846296.0,286047000.2,N
1509846315.8,286047005.1,N
1509846335.7,286047007.0,N
1509846355.5,286047003.8,N
1509846375.3,286047004.0,N
1509846395.2,286047004.8,N
1509846415.9,286047003.3,N
1509846435.7,286047010.8,N
1509846455.6,286047013.6,N
1509846475.4,286047010.0,N
1509846495.2,286047005.8,N
1509846515.1,286047005.4,N
1509846516.0,286047005.4,N
1509846535.8,286047007.0,N
1509846555.6,286047006.0,N
1509846575.5,286047008.8,N
1509846595.3,286047009.8,N
1509846615.2,286047012.8,Y
1509846635.9,286047012.0,P
1509846655.7,286047012.5,P
1509846675.6,286047013.0,P
1509846695.4,286047011.6,Y
1509846715.2,286047001.8,P
1509846735.1,286047005.6,N
1509846736.0,286047005.6,N
1509846755.8,286047010.4,Y
1509846775.6,286047002.6,P
1509846795.5,286047000.5,N
1509846815.3,286046999.1,N
1509846835.1,286046996.8,N
1509846855.9,286046996.6,N
1509846875.7,286046995.9,N
1509846895.5,286046998.0,N
1509846915.4,286046997.3,N
1509846935.2,286046999.2,N
1509846955.0,286046995.1,N
1509846956.0,286046995.1,N
1509846975.8,286046994.5,N
1509846995.6,286046993.1,N
1509847015.4,286046992.8,N
1509847035.3,286046992.3,N
1509847055.1,286046994.4,N
1509847075.8,286046990.2,N
1509847095.7,286046988.8,N
1509847115.5,286046984.4,Y
1509847135.4,286046993.1,P
1509847155.2,286046992.6,P
1509847175.0,286046992.1,P
1509847175.9,286046992.1,Y
1509847195.8,286046997.7,P
